Theta_e
332 331 330 331 330 329 327 329 330 330 329 329 331 332 332 330 330 330 329 321 328 331 331 329 327 325 323 322 320 320 318 317 316 315 315 315 315 315 313 312 311 311 311
332 330 331 328 327 328 328 326 329 330 329 328 329 329 330 329 329 328 329 326 325 328 329 328 327 325 323 322 320 319 318 317 315 314 314 313 313 312 311 311 310 310 309
330 328 329 328 326 326 329 325 326 327 327 328 328 329 330 326 328 327 327 327 325 323 326 327 326 324 323 321 320 318 317 315 314 313 313 312 312 311 310 309 309 309 307
329 331 326 325 326 329 325 326 324 324 324 325 325 326 327 325 326 327 326 325 325 323 323 325 325 323 322 321 320 318 317 315 314 313 312 311 311 311 309 308 308 307 307
324 326 328 329 327 324 324 324 323 323 322 322 321 323 325 324 323 324 323 322 323 321 320 321 320 320 321 321 320 318 317 315 313 312 311 310 310 309 308 308 307 306 306
320 323 325 326 327 326 323 322 322 323 322 321 319 319 321 323 323 322 321 321 320 319 319 318 318 316 318 320 319 319 317 315 313 311 310 310 309 309 308 307 306 305 304
317 317 321 323 325 323 323 323 321 319 320 321 314 301 302 301 313 319 320 319 318 318 317 317 317 316 316 319 318 318 317 315 313 311 310 309 309 308 307 306 307 305 304
316 316 318 320 321 321 322 321 321 317 318 317 310 310 301 301 300 298 310 315 315 315 314 315 314 314 313 313 313 317 316 315 313 311 310 309 309 308 307 306 305 305 304
310 312 314 315 319 320 318 320 321 319 316 313 316 308 297 303 296 295 296 305 313 313 313 314 313 312 312 312 314 313 314 313 312 311 310 309 308 308 307 306 305 304 303
308 309 309 310 312 315 316 318 320 320 316 313 312 315 311 300 303 291 293 294 298 309 311 312 312 311 311 311 309 307 308 311 311 310 309 308 308 307 307 306 305 304 303
305 306 306 307 308 309 312 315 317 318 317 313 309 311 308 302 305 296 299 291 292 296 308 309 311 310 310 309 309 307 308 310 309 309 308 307 307 306 306 305 305 304 303
303 304 304 304 305 306 309 312 315 316 317 315 311 308 307 303 302 305 306 297 297 293 296 302 306 307 308 308 305 302 306 308 308 308 307 305 305 305 304 304 304 304 303
300 301 303 303 303 304 305 308 310 313 315 314 311 308 307 310 308 308 307 301 297 290 292 295 297 300 301 304 303 298 301 306 307 306 305 304 303 302 302 302 303 303 303
298 299 300 301 302 303 304 304 307 308 311 314 313 312 309 309 311 309 306 301 295 287 287 290 294 295 295 297 298 296 301 303 305 304 303 302 301 301 300 300 301 301 301
295 295 296 297 299 301 302 304 304 307 307 310 313 312 310 309 309 308 309 305 299 291 288 289 290 294 294 294 294 297 298 298 302 302 301 300 299 299 299 299 299 300 300
294 294 295 295 297 299 300 302 303 306 307 307 310 312 311 309 308 307 306 305 305 302 296 291 292 292 293 293 292 294 294 294 297 299 300 299 298 298 298 298 299 299 299
292 293 294 294 294 296 298 298 300 302 304 306 308 310 310 311 309 308 306 306 304 303 298 286 290 290 291 291 290 292 290 292 294 296 298 298 298 297 297 297 298 298 298
291 291 292 293 293 295 296 296 296 298 301 304 307 308 309 310 308 307 304 303 303 303 292 286 286 286 289 290 288 288 288 290 289 294 297 297 297 296 295 296 296 296 296
290 291 291 291 291 293 294 295 296 296 298 301 306 308 309 308 305 303 301 301 301 298 296 289 284 286 285 289 285 286 286 286 287 291 295 296 296 296 295 294 294 295 294
289 290 291 291 291 292 293 294 295 295 297 301 304 307 308 307 305 302 299 299 298 293 290 291 286 286 286 284 285 283 282 284 284 285 290 291 293 294 294 294 293 293 293
289 290 290 291 292 292 293 294 294 295 295 298 300 307 307 303 298 300 299 297 293 291 290 288 285 284 282 282 283 284 284 284 283 283 283 284 287 288 289 292 290 291 292
289 289 289 289 290 292 293 293 293 293 293 296 296 303 301 293 295 295 296 296 294 292 290 289 287 286 285 284 285 284 284 281 279 284 282 282 284 284 285 286 288 290 291
289 288 288 289 289 291 293 293 292 293 294 295 296 294 293 295 294 295 294 294 293 295 295 293 289 288 285 285 285 284 284 284 283 282 282 281 283 282 285 284 288 289 290
287 286 287 289 290 291 293 293 292 293 294 293 294 293 293 292 292 291 290 288 288 289 290 288 291 288 287 287 287 286 285 281 279 280 282 280 280 281 282 283 287 288 288
286 286 287 288 288 290 293 293 292 290 289 288 289 291 290 291 290 292 289 286 285 286 291 290 290 290 289 288 286 284 282 282 279 278 278 281 277 279 278 278 281 285 286
285 285 285 287 288 289 293 293 290 287 286 286 286 287 287 289 291 291 288 286 283 283 284 284 285 287 286 286 287 286 284 283 282 279 279 279 277 278 277 277 277 276 277
Wind_Speed
10 9 9 9 10 10 11 11 11 12 13 14 14 13 13 11 11 7 8 13 18 22 24 23 22 22 21 20 18 17 16 14 13 12 12 11 12 11 10 9 8 8 7
7 7 9 9 9 9 11 11 12 12 12 13 15 14 14 10 11 11 10 11 17 22 24 24 23 23 22 21 19 17 16 15 14 13 12 11 11 10 9 9 8 7 8
7 8 9 10 6 6 12 10 10 11 11 11 14 14 13 12 12 14 12 12 12 17 22 24 23 22 23 21 20 18 17 16 14 13 12 12 10 10 9 8 8 7 6
12 11 8 6 9 9 10 11 11 10 9 11 10 13 11 11 15 15 14 13 12 11 15 23 22 23 24 23 22 20 18 16 16 15 14 12 11 11 10 8 7 7 6
11 11 8 8 9 7 10 12 13 13 10 10 10 11 12 10 13 12 14 16 16 14 11 17 20 21 23 24 23 22 19 18 16 15 14 14 12 11 10 9 8 7 6
11 10 8 10 10 9 9 8 12 13 13 12 11 9 9 11 11 11 14 13 15 15 15 15 12 12 20 23 22 21 20 19 17 15 15 15 13 12 10 10 8 7 6
11 11 8 9 10 11 12 13 11 11 14 12 10 2 3 5 4 11 12 13 14 14 15 14 11 10 11 23 23 23 22 21 19 17 16 15 14 12 12 10 10 8 7
11 10 11 10 11 9 12 13 14 10 6 10 7 14 5 0 2 3 3 10 15 13 12 14 14 15 13 11 13 23 23 21 20 19 18 16 15 13 12 11 10 10 7
13 13 13 11 11 10 10 13 13 15 12 6 16 8 5 9 3 1 1 2 14 13 12 14 16 15 15 12 15 17 20 21 21 20 19 17 16 14 13 12 11 10 9
15 15 15 14 14 10 12 12 12 13 12 12 9 14 11 9 7 3 1 0 5 10 15 11 14 15 15 12 16 16 17 19 20 21 20 18 17 15 14 13 12 11 9
17 16 15 15 15 13 14 15 13 15 12 10 8 8 10 2 8 6 8 3 1 3 8 8 10 12 14 13 13 14 20 21 20 19 19 18 17 16 15 14 13 11 11
11 16 16 16 17 16 16 15 15 16 14 11 12 12 5 6 7 8 7 10 12 4 1 6 8 9 11 11 13 15 22 24 23 19 18 18 18 17 16 14 13 13 12
11 13 15 15 14 17 17 16 16 16 15 12 15 12 13 11 3 9 7 9 8 1 2 3 6 7 8 8 10 14 21 24 23 21 19 19 19 17 16 15 14 14 13
11 13 12 14 16 17 17 17 15 15 15 14 16 14 12 13 13 10 7 8 5 3 3 4 7 7 7 7 8 15 14 23 22 22 22 21 20 19 17 15 15 15 14
13 16 15 17 18 19 18 18 14 16 16 15 15 15 12 10 11 11 13 12 9 9 9 8 5 10 8 8 8 12 13 19 23 22 21 22 21 20 18 17 16 16 15
15 15 16 16 16 18 18 17 15 15 16 13 12 16 15 12 13 10 9 11 11 10 9 5 6 6 12 8 10 12 11 15 20 20 20 20 21 20 19 18 17 17 16
16 16 15 14 15 14 15 14 14 15 16 16 16 16 17 16 12 13 12 10 10 7 7 1 2 3 12 12 10 10 9 11 11 20 22 21 21 20 19 18 18 17 17
15 17 15 14 14 15 17 17 17 15 17 17 18 17 17 12 14 14 11 15 14 11 6 9 3 4 6 12 11 13 9 8 9 17 19 20 20 20 19 18 19 18 18
16 16 15 15 15 15 15 16 17 18 19 18 18 18 16 16 14 11 11 12 11 8 7 6 4 3 3 10 9 8 9 8 5 12 21 20 19 20 19 19 18 18 17
15 16 15 15 15 15 15 17 18 16 16 16 16 17 17 17 17 15 13 12 10 9 6 7 4 6 4 6 8 10 8 8 9 4 11 11 16 18 19 19 18 18 17
14 15 14 14 14 14 12 15 16 13 12 13 10 14 15 13 16 15 11 12 12 10 8 8 5 5 4 8 15 10 9 7 4 4 5 4 7 7 9 18 15 15 18
14 12 12 12 12 9 15 16 12 10 12 11 9 12 8 12 15 18 16 17 19 15 12 10 8 11 11 10 9 10 9 8 5 6 8 7 8 8 9 8 16 20 22
7 6 8 9 10 11 14 14 19 11 9 9 9 7 8 6 10 11 11 15 16 20 20 14 14 13 11 15 13 12 8 7 3 6 7 6 8 9 7 8 19 21 22
4 1 3 6 7 7 11 13 11 8 7 5 9 11 11 10 10 12 11 8 6 5 6 3 7 6 5 11 12 6 9 7 7 4 3 4 3 6 4 4 16 17 17
5 4 2 5 6 6 11 11 8 4 4 6 5 9 10 10 16 20 13 13 10 8 11 16 17 19 23 23 14 10 8 9 3 2 3 1 2 1 2 2 4 9 10
6 5 7 4 4 4 8 11 12 6 6 6 8 8 10 9 19 21 15 14 12 9 14 12 9 15 15 17 14 5 9 8 5 3 5 4 3 2 2 1 0 1 1
Wind_Direction
219 218 219 216 201 207 201 214 213 211 211 214 212 202 206 202 196 178 168 172 171 172 164 168 165 162 159 157 158 155 153 151 147 146 140 139 131 126 128 122 117 102 106
237 241 224 209 223 214 206 207 214 217 211 210 207 204 202 192 197 183 172 178 178 172 169 174 171 167 164 159 160 160 157 156 156 152 150 145 136 136 137 126 123 114 106
227 259 225 210 225 230 221 206 215 221 226 210 221 208 194 189 208 185 171 176 172 172 171 179 174 172 164 163 166 164 162 162 161 158 156 154 147 141 141 139 127 110 122
237 220 213 236 248 225 198 214 205 213 210 212 216 217 201 189 205 189 176 175 174 174 180 177 178 176 169 166 169 168 166 167 166 164 163 162 160 157 152 150 148 137 129
260 267 228 227 212 221 242 213 209 208 198 196 202 224 210 195 200 185 177 172 174 174 174 179 176 180 175 170 173 172 170 171 174 172 170 171 171 165 166 157 151 156 147
249 244 243 231 230 221 215 241 233 213 203 194 201 202 224 196 188 192 177 174 176 179 175 168 174 178 181 176 178 176 173 173 177 180 179 177 176 175 172 171 166 165 167
252 255 246 234 226 234 232 225 214 237 207 195 165 64 224 342 174 182 180 174 183 185 177 175 175 175 179 174 181 182 178 178 179 185 187 184 181 181 183 181 175 177 177
248 245 238 236 237 229 229 229 229 226 226 174 180 183 201 25 353 17 261 185 182 172 174 177 178 175 176 178 178 183 185 182 182 187 193 186 185 186 189 189 193 189 186
246 243 244 241 236 232 228 233 222 222 229 201 218 165 126 211 125 302 27 253 193 183 176 179 182 180 179 181 178 182 187 182 187 190 194 191 188 190 192 193 198 199 194
237 238 237 238 238 239 235 227 222 224 219 227 211 219 196 138 179 163 259 217 296 181 187 177 187 182 181 180 178 172 179 177 187 195 194 193 190 193 194 198 201 205 208
252 241 238 237 233 236 237 237 221 221 222 209 204 221 184 155 142 144 174 171 12 282 193 163 186 181 181 184 177 179 174 174 180 193 195 194 193 196 198 201 205 209 215
253 253 245 243 241 235 230 233 235 223 219 214 203 207 263 208 183 184 187 174 184 204 201 159 184 187 185 182 178 172 175 175 178 186 191 194 196 198 202 204 210 215 219
261 259 251 248 244 242 239 231 230 233 223 210 200 201 201 218 179 207 197 181 169 151 189 222 201 185 182 189 179 165 173 178 178 184 190 193 196 198 202 208 214 219 224
277 272 267 260 251 246 240 235 230 227 230 221 209 204 198 202 199 203 160 165 147 131 192 167 193 189 182 183 171 171 175 175 178 188 192 195 198 200 202 208 217 221 225
261 265 271 269 261 249 244 237 234 226 226 225 210 202 193 186 194 198 195 181 162 174 205 195 166 192 180 173 171 179 177 179 178 188 193 197 199 203 205 210 217 223 225
267 256 252 256 261 253 248 237 237 234 227 224 219 199 198 181 185 178 189 189 179 184 198 164 187 171 178 175 172 181 179 175 180 188 196 198 201 205 209 213 220 226 228
262 263 255 248 253 258 247 246 245 240 239 230 221 206 199 199 187 190 187 185 195 193 169 62 123 143 181 171 174 185 170 178 185 191 196 198 200 205 211 216 223 229 233
261 260 254 247 249 243 239 241 246 251 243 239 223 212 200 194 188 183 184 189 198 191 153 158 154 149 185 187 169 179 177 183 183 197 194 198 203 210 212 218 225 232 238
258 253 245 238 238 236 239 231 234 239 244 245 235 213 198 188 187 180 180 186 191 180 180 147 143 138 111 176 160 172 176 175 157 179 198 204 208 215 216 224 229 237 240
258 249 239 231 228 233 234 232 230 232 245 241 246 220 201 186 185 178 179 184 181 168 162 166 140 161 149 158 169 160 174 176 170 155 200 199 220 217 221 228 236 240 240
256 243 236 230 225 226 224 226 224 227 239 245 271 231 195 184 167 172 175 179 165 168 171 164 150 140 149 169 180 172 177 170 158 157 165 188 214 206 226 236 240 237 241
265 236 225 222 223 226 226 216 225 230 232 256 251 236 152 146 164 171 177 173 177 173 177 178 180 179 182 175 169 172 157 151 177 174 170 191 197 212 218 221 229 234 240
302 219 218 215 215 223 217 218 219 231 230 237 253 145 123 145 159 168 172 177 191 188 182 185 180 183 167 172 163 161 172 165 132 147 152 186 184 222 222 225 228 236 243
323 287 220 211 208 216 216 228 222 214 230 232 191 137 138 143 149 141 137 124 111 130 154 144 186 151 112 154 159 150 140 104 75 77 150 176 155 217 196 211 232 244 249
356 339 243 207 219 216 210 215 204 126 144 134 125 118 130 138 148 144 137 121 105 88 105 110 119 123 131 129 124 118 132 138 99 143 195 156 151 143 173 230 220 243 255
23 18 33 33 202 198 207 168 121 107 113 107 79 82 108 134 144 142 134 133 117 123 108 95 98 105 109 117 116 118 141 146 118 136 178 166 149 168 232 152 180 188 207